Station FTPC1 - 9414290 - San Francisco, CA Image indicating link to RSS feed of recent meteorological observations for station FTPC1


Conditions at FTPC1 as of
(1:00 am PDT)
0800 GMT on 04/23/2024:
     

Click on the graph icon in the table below to see a time series plot of the last five days of that observation.

5-day plot - Wind Direction Wind Direction (WDIR): SW ( 220 deg true )
5-day plot - Wind Speed Wind Speed (WSPD): 8.9 kts
5-day plot - Wind Gust Wind Gust (GST): 15.0 kts
5-day plot - Atmospheric Pressure Atmospheric Pressure (PRES):29.89 in
5-day plot - Pressure Tendency Pressure Tendency (PTDY):+0.00 in ( Steady )
5-day plot - Air Temperature Air Temperature (ATMP): 54.9 °F
5-day plot - Wind Speed at 10 Meters Wind Speed at 10 meters (WSPD10M): 9.7 kts
5-day plot - Wind Speed at 20 Meters Wind Speed at 20 meters (WSPD20M): 9.7 kts
5-day plot -  Wind Speed, Wind Gust and Atmospheric Pressure Combined plot of Wind Speed, Gust, and Air Pressure
NOS Water Level Observation Network Water Level
Previous observations
TIME
(PDT)
5-day plot - Wind Direction
WDIR
 
5-day plot - Wind Speed
WSPD
kts
5-day plot - Wind Gust
GST
kts
5-day plot - Wave Height
WVHT
ft
5-day plot - Dominant Wave Period
DPD
sec
5-day plot - Average Wave Period
APD
sec
5-day plot - Mean Wave Direction
MWD
 
5-day plot - Atmospheric Pressure
PRES
in
5-day plot - Pressure Tendency
PTDY
in
5-day plot - Air Temperature
ATMP
°F
5-day plot - Water Temperature
WTMP
°F
5-day plot - Dew Point
DEWP
°F
5-day plot - Salinity
SAL
psu
5-day plot - Visibility
VIS
nmi
5-day plot - Tide (above MLLW)
TIDE
ft
2024-04-23 12:54 am SW 8.0 15.9----29.89- 54.9-----
2024-04-23 12:48 am SW 8.0 15.9----29.89- 54.9-----
2024-04-23 12:42 am SW 8.9 18.1----29.89- 54.9-----
2024-04-23 12:36 amSSW 7.0 14.0----29.89- 54.9-----
2024-04-23 12:30 am SW 8.0 12.0----29.89- 54.9-----
2024-04-23 12:24 am SW 6.0 9.9----29.89- 54.9-----
2024-04-23 12:18 am SW 8.9 15.9----29.89- 54.9-----
2024-04-23 12:12 am SW 8.0 14.0----29.89- 54.9-----
2024-04-23 12:06 am SW 8.0 12.0----29.89- 55.0-----
2024-04-23 12:00 am SW 6.0 12.0----29.89+0.03 55.0-----
2024-04-22 11:54 pm SW 8.9 13.0----29.89- 55.0-----
2024-04-22 11:48 pm SW 8.0 14.0----29.89- 55.0-----
2024-04-22 11:42 pm SW 8.0 12.0----29.89- 55.0-----
2024-04-22 11:36 pm SW 8.0 12.0----29.89- 55.0-----
2024-04-22 11:30 pm SW 8.9 14.0----29.89- 55.0-----
2024-04-22 11:24 pm SW 8.9 15.0----29.89- 55.0-----
2024-04-22 11:18 pm SW 7.0 13.0----29.89- 55.0-----
2024-04-22 11:12 pm SW 8.9 15.0----29.89- 55.0-----
2024-04-22 11:06 pm SW 8.0 11.1----29.89- 55.0-----
2024-04-22 11:00 pmSSW 9.9 18.1----29.89+0.04 55.2-----
2024-04-22 10:54 pm SW 8.0 17.1----29.89- 55.0-----
2024-04-22 10:48 pm SW 8.9 14.0----29.89-------
2024-04-22 10:42 pm SW 8.9 15.0----29.89- 55.2-----
2024-04-22 10:36 pmWSW 8.9 15.0----29.89- 55.2-----
2024-04-22 10:30 pm SW 8.9 15.0----29.89- 55.2-----
2024-04-22 10:24 pm SW 7.0 15.0----29.89- 55.2-----
2024-04-22 10:18 pm SW 8.0 15.0----29.89-------
2024-04-22 10:12 pm SW 8.0 15.0----29.89- 55.4-----
2024-04-22 10:06 pm SW 8.0 15.0----29.89- 55.4-----
2024-04-22 10:00 pm SW 9.9 14.0----29.89+0.05 55.4-----
2024-04-22 09:54 pm SW 9.9 14.0----29.88- 55.2-----
2024-04-22 09:48 pm SW 11.1 15.9----29.88- 55.2-----
2024-04-22 09:42 pm SW 8.0 15.0----29.88- 55.2-----
2024-04-22 09:36 pm SW 9.9 17.1----29.88- 55.2-----
2024-04-22 09:30 pm SW 8.0 17.1----29.88- 55.2-----
2024-04-22 09:24 pm SW 11.1 19.0----29.88- 55.2-----
2024-04-22 09:18 pm SW 8.9 17.1----29.88- 55.2-----
2024-04-22 09:12 pmWSW 8.9 15.0----29.87- 55.2-----
2024-04-22 09:06 pmWSW 12.0 22.0----29.87- 55.2-----
2024-04-22 09:00 pmWSW 8.0 15.0----29.87+0.03 55.2-----
2024-04-22 08:54 pm SW 8.9 19.0----29.86- 55.2-----
2024-04-22 08:48 pm SW 8.9 15.9----29.86- 55.2-----
2024-04-22 08:42 pmWSW 13.0 18.1----29.86- 55.2-----
2024-04-22 08:36 pmWSW 11.1 19.0----29.86- 55.2-----
2024-04-22 08:30 pmWSW 8.0 17.1----29.85- 55.2-----
2024-04-22 08:24 pm SW 12.0 18.1----29.85- 55.2-----
2024-04-22 08:18 pmWSW 9.9 17.1----29.85- 55.2-----
2024-04-22 08:12 pmWSW 9.9 19.0----29.85- 55.2-----
2024-04-22 08:06 pm SW 8.9 15.0----29.85- 55.2-----
2024-04-22 08:00 pm SW 8.9 18.1----29.85+0.01 55.2-----
2024-04-22 07:54 pm SW 8.0 15.9----29.85- 55.2-----
2024-04-22 07:48 pm SW 12.0 20.0----29.85- 55.2-----
2024-04-22 07:42 pm SW 11.1 17.1----29.84- 55.0-----
2024-04-22 07:36 pmWSW 12.0 15.9----29.84- 55.0-----
2024-04-22 07:30 pmWSW 8.9 19.0----29.84- 55.0-----
2024-04-22 07:24 pmWSW 12.0 21.0----29.84- 55.0-----
2024-04-22 07:18 pmWSW 9.9 15.0----29.84- 55.2-----
2024-04-22 07:12 pm SW 11.1 22.0----29.84- 55.2-----
2024-04-22 07:06 pmWSW 12.0 21.0----29.84- 55.2-----
2024-04-22 07:00 pm SW 14.0 21.0----29.84+0.00 55.2-----
2024-04-22 06:54 pm SW 12.0 20.0----29.83- 55.2-----
2024-04-22 06:48 pmWSW 11.1 19.0----29.83-------
2024-04-22 06:42 pm SW 11.1 17.1----29.84- 55.2-----
2024-04-22 06:36 pm SW 11.1 21.0----29.83- 55.4-----
2024-04-22 06:30 pm SW 13.0 20.0----29.83- 55.2-----
2024-04-22 06:24 pmWSW 15.0 27.0----29.83- 55.2-----
2024-04-22 06:18 pmWSW 12.0 19.0----29.84-------
2024-04-22 06:12 pmWSW 12.0 22.0----29.84-------
2024-04-22 06:06 pm SW 12.0 21.0----29.84-------
2024-04-22 06:00 pm SW 9.9 22.0----29.84-0.01 55.4-----
2024-04-22 05:54 pm SW 12.0 22.0----29.83- 55.4-----
2024-04-22 05:48 pm SW 17.1 24.1----29.84-------
2024-04-22 05:42 pmWSW 15.9 24.1----29.84-------
2024-04-22 05:36 pm SW 13.0 24.1----29.84-------
2024-04-22 05:30 pm SW 12.0 21.0----29.84- 55.4-----
2024-04-22 05:24 pm SW 15.9 22.9----29.84- 55.4-----
2024-04-22 05:18 pm--------- 55.4-----
2024-04-22 05:12 pm--------- 55.4-----
2024-04-22 05:06 pm--------- 55.4-----
2024-04-22 05:00 pm SW 15.9 24.1----29.83-0.02 55.4-----
2024-04-22 04:54 pm SW 17.1 25.1----29.83- 55.4-----
2024-04-22 04:48 pm SW 13.0 20.0----29.83- 55.6-----
2024-04-22 04:42 pm SW 15.9 24.1----29.83- 55.4-----
2024-04-22 04:36 pm SW 17.1 25.1----29.83- 55.4-----
2024-04-22 04:30 pm SW 13.0 21.0----29.83- 55.9-----
2024-04-22 04:24 pm SW 9.9 18.1----29.83- 56.3-----
2024-04-22 04:18 pmWSW 8.9 19.0----29.83-------
2024-04-22 04:12 pmWSW 12.0 20.0----29.84- 55.8-----
2024-04-22 04:06 pmWSW 12.0 21.0----29.84- 55.8-----
2024-04-22 04:00 pmWSW 15.0 24.1----29.84-0.01 55.4-----
2024-04-22 03:54 pm SW 15.9 25.1----29.84- 55.6-----
2024-04-22 03:48 pm SW 14.0 22.9----29.84-------
2024-04-22 03:42 pm SW 13.0 22.9----29.84- 55.9-----
2024-04-22 03:36 pm SW 12.0 22.0----29.85- 56.3-----
2024-04-22 03:30 pmWSW 13.0 22.9----29.85- 56.3-----
2024-04-22 03:24 pmWSW 15.0 24.1----29.85- 56.3-----
2024-04-22 03:18 pm SW 14.0 25.1----29.85- 56.5-----
2024-04-22 03:12 pm SW 12.0 20.0----29.85- 56.5-----
2024-04-22 03:06 pmWSW 12.0 22.0----29.85- 56.7-----
2024-04-22 03:00 pmWSW 12.0 19.0----29.85+0.00 56.5-----
2024-04-22 02:54 pm SW 13.0 22.9----29.85- 56.5-----
2024-04-22 02:48 pmWSW 15.9 21.0----29.85- 56.3-----
2024-04-22 02:42 pm SW 14.0 22.9----29.85- 56.3-----
2024-04-22 02:36 pmWSW 15.9 24.1----29.85- 56.1-----
2024-04-22 02:30 pmWSW 14.0 21.0----29.85- 56.3-----
2024-04-22 02:24 pmWSW 13.0 19.0----29.85- 56.3-----
2024-04-22 02:18 pmWSW 15.0 24.1----29.85- 56.1-----
2024-04-22 02:12 pmWSW 15.0 25.1----29.85- 56.1-----
2024-04-22 02:06 pmWSW 12.0 20.0----29.85- 56.8-----
2024-04-22 02:00 pmWSW 12.0 19.0----29.85+0.00 56.5-----
2024-04-22 01:54 pmWSW 14.0 21.0----29.85- 56.5-----
2024-04-22 01:48 pmWSW 12.0 20.0----29.85-------
2024-04-22 01:42 pmWSW 13.0 19.0----29.85- 56.8-----
2024-04-22 01:36 pmWSW 12.0 22.0----29.85- 56.5-----
2024-04-22 01:30 pmWSW 13.0 24.1----29.85- 56.8-----
2024-04-22 01:24 pmWSW 11.1 25.1----29.85- 57.0-----
2024-04-22 01:18 pmWSW 13.0 21.0----29.85-------
2024-04-22 01:12 pmWSW 13.0 18.1----29.85- 56.3-----
2024-04-22 01:06 pmWSW 13.0 21.0----29.85- 56.1-----
2024-04-22 01:00 pmWSW 13.0 21.0----29.85+0.01 56.5-----
2024-04-22 12:54 pmWSW 12.0 19.0----29.85- 56.3-----
2024-04-22 12:48 pmWSW 12.0 18.1----29.85-------
2024-04-22 12:42 pmWSW 12.0 18.1----29.85- 56.1-----
2024-04-22 12:36 pmWSW 13.0 20.0----29.85- 55.8-----
2024-04-22 12:30 pmWSW 13.0 19.0----29.85- 56.3-----
2024-04-22 12:24 pmWSW 13.0 19.0----29.85- 56.1-----
2024-04-22 12:18 pm W 14.0 19.0----29.85-------
2024-04-22 12:12 pmWSW 12.0 17.1----29.85- 56.1-----
2024-04-22 12:06 pmWSW 13.0 20.0----29.85- 55.8-----
2024-04-22 12:00 pmWSW 12.0 18.1----29.85+0.00 56.3-----
2024-04-22 11:54 amWSW 12.0 21.0----29.85- 56.1-----
2024-04-22 11:48 amWSW 12.0 19.0----29.85- 56.1-----
2024-04-22 11:42 amWSW 11.1 19.0----29.85- 56.1-----
2024-04-22 11:36 amWSW 9.9 17.1----29.85- 55.9-----
2024-04-22 11:30 amWSW 11.1 21.0----29.85- 55.9-----
2024-04-22 11:24 amWSW 13.0 21.0----29.85- 55.6-----
2024-04-22 11:18 amWSW 11.1 20.0----29.85- 55.8-----
2024-04-22 11:12 amWSW 9.9 19.0----29.85- 56.1-----
2024-04-22 11:06 am SW 9.9 17.1----29.85- 56.3-----
2024-04-22 11:00 amWSW 9.9 14.0----29.84+0.00 56.5-----
2024-04-22 10:54 amWSW 8.9 17.1----29.84- 56.3-----
2024-04-22 10:48 am SW 8.0 14.0----29.84- 56.7-----
2024-04-22 10:42 am SW 8.0 13.0----29.84- 56.8-----
2024-04-22 10:36 am SW 8.0 14.0----29.84- 56.7-----
2024-04-22 10:30 am SW 7.0 13.0----29.84- 57.2-----
2024-04-22 10:24 amWSW 8.0 12.0----29.84- 57.0-----
2024-04-22 10:18 amWSW 7.0 11.1----29.84-------
2024-04-22 10:12 am SW 7.0 11.1----29.84- 57.2-----
2024-04-22 10:06 amWSW 8.0 15.0----29.84- 56.8-----
2024-04-22 10:00 am SW 6.0 15.0----29.84+0.00 57.0-----
2024-04-22 09:54 amWSW 6.0 12.0----29.84- 57.2-----
2024-04-22 09:48 amSSW 7.0 14.0----29.85- 56.7-----
2024-04-22 09:42 am SW 8.0 15.0----29.85- 56.5-----
2024-04-22 09:36 am SW 5.1 13.0----29.85- 56.5-----
2024-04-22 09:30 amWSW 7.0 11.1----29.85- 56.3-----
2024-04-22 09:24 amWSW 8.0 13.0----29.85- 56.1-----
2024-04-22 09:18 am SW 7.0 15.0----29.85- 56.1-----
2024-04-22 09:12 amWSW 7.0 9.9----29.85- 56.5-----
2024-04-22 09:06 am SW 2.9 8.0----29.85- 56.3-----
2024-04-22 09:00 am SW 4.1 8.9----29.85+0.02 56.5-----
2024-04-22 08:54 am SW 4.1 9.9----29.85- 56.1-----
2024-04-22 08:48 amWSW 5.1 11.1----29.86- 56.1-----
2024-04-22 08:42 amWSW 5.1 9.9----29.85- 55.9-----
2024-04-22 08:36 amWSW 7.0 11.1----29.85- 55.9-----
2024-04-22 08:30 amWSW 7.0 11.1----29.85- 55.8-----
2024-04-22 08:24 am SW 6.0 11.1----29.85- 55.8-----
2024-04-22 08:18 amWSW 8.0 12.0----29.85- 55.4-----
2024-04-22 08:12 am SW 7.0 9.9----29.85- 55.6-----
2024-04-22 08:06 am SW 6.0 9.9----29.85- 55.6-----
2024-04-22 08:00 am SW 6.0 8.9----29.85+0.01 55.4-----
2024-04-22 07:54 amWSW 6.0 8.0----29.85- 55.4-----
2024-04-22 07:48 am SW 6.0 8.9----29.85-------
2024-04-22 07:42 am SW 4.1 6.0----29.85- 55.4-----
2024-04-22 07:36 am SW 4.1 8.9----29.84- 55.0-----
2024-04-22 07:30 amWSW 4.1 5.1----29.84- 55.0-----
2024-04-22 07:24 am SW 1.9 4.1----29.84- 54.9-----
2024-04-22 07:18 amWNW 1.0 1.9----29.84- 55.0-----
2024-04-22 07:12 am- 0.0 1.0----29.84- 54.9-----
2024-04-22 07:06 amSSW 1.0 2.9----29.84- 54.1-----
2024-04-22 07:00 amSSW 1.9 4.1----29.84-0.01 53.8-----
2024-04-22 06:54 am- 0.0 2.9----29.83- 53.6-----
2024-04-22 06:48 am S 1.9 2.9----29.83- 53.4-----
2024-04-22 06:42 am SW 1.9 2.9----29.83- 53.2-----
2024-04-22 06:36 amSSW 1.9 4.1----29.83- 53.2-----
2024-04-22 06:30 am SW 1.0 2.9----29.83- 53.2-----
2024-04-22 06:24 am W 1.9 4.1----29.83- 53.2-----
2024-04-22 06:18 am S 1.0 6.0----29.84- 53.2-----
2024-04-22 06:12 am SW 2.9 7.0----29.84- 53.2-----
2024-04-22 06:06 am SW 4.1 7.0----29.84- 53.2-----
2024-04-22 06:00 am SW 2.9 6.0----29.83-0.02 53.2-----
2024-04-22 05:54 am SW 2.9 6.0----29.83- 53.2-----
2024-04-22 05:48 am SW 2.9 6.0----29.83- 53.4-----
2024-04-22 05:42 am SW 4.1 8.9----29.84- 53.4-----
2024-04-22 05:36 am SW 4.1 7.0----29.84- 53.4-----
2024-04-22 05:30 amSSW 2.9 7.0----29.84- 53.4-----
2024-04-22 05:24 amSSW 2.9 7.0----29.84- 53.4-----
2024-04-22 05:18 am SW 6.0 8.9----29.84- 53.4-----
2024-04-22 05:12 am SW 4.1 8.0----29.84- 53.4-----
2024-04-22 05:06 am SW 2.9 5.1----29.84- 53.4-----
2024-04-22 05:00 amSSW 4.1 6.0----29.84-0.04 53.4-----
2024-04-22 04:54 amSSW 1.9 5.1----29.84- 53.4-----
2024-04-22 04:48 amSSW 2.9 7.0----29.84- 53.4-----
2024-04-22 04:42 amSSW 4.1 7.0----29.84- 53.6-----
2024-04-22 04:36 amSSW 2.9 7.0----29.84- 53.6-----
2024-04-22 04:30 amSSW 4.1 8.0----29.84- 53.6-----
2024-04-22 04:24 amSSW 4.1 8.9----29.84- 53.6-----
2024-04-22 04:18 amSSW 5.1 8.0----29.84- 53.6-----
2024-04-22 04:12 am SW 4.1 7.0----29.85- 53.6-----
2024-04-22 04:06 am SW 5.1 8.0----29.84- 53.6-----
2024-04-22 04:00 am SW 5.1 8.0----29.85-0.04 53.6-----
2024-04-22 03:54 am SW 6.0 8.0----29.85- 53.6-----
2024-04-22 03:48 am SW 7.0 9.9----29.84- 53.6-----
2024-04-22 03:42 am SW 2.9 6.0----29.84- 53.6-----
2024-04-22 03:36 amSSW 4.1 7.0----29.84- 53.6-----
2024-04-22 03:30 am SW 2.9 7.0----29.85- 53.6-----
2024-04-22 03:24 amSSW 5.1 7.0----29.85- 53.6-----
2024-04-22 03:18 amSSW 4.1 7.0----29.85- 53.4-----
2024-04-22 03:12 amSSW 4.1 6.0----29.85- 53.4-----
2024-04-22 03:06 amSSW 2.9 5.1----29.85- 53.4-----
2024-04-22 03:00 amSSW 1.9 4.1----29.85-0.04 53.2-----
2024-04-22 02:54 am SW 1.9 6.0----29.85- 53.4-----
2024-04-22 02:48 amSSW 1.9 4.1----29.86-------
2024-04-22 02:42 amSSW 1.9 4.1----29.86- 53.4-----
2024-04-22 02:36 am SW 2.9 4.1----29.86- 53.4-----
2024-04-22 02:30 am S 1.9 4.1----29.87- 53.4-----
2024-04-22 02:24 am SW 1.9 4.1----29.87- 53.6-----
2024-04-22 02:18 am SW 2.9 4.1----29.87-------
2024-04-22 02:12 am W 1.9 4.1----29.87- 53.6-----
2024-04-22 02:06 amWSW 1.9 2.9----29.87- 53.6-----
2024-04-22 02:00 am S 1.9 2.9----29.88-0.04 53.6-----
2024-04-22 01:54 am S 1.9 1.9----29.88- 53.4-----
2024-04-22 01:48 am S 1.0 1.9----29.88- 53.6-----
2024-04-22 01:42 amSSE 1.0 1.9----29.88- 53.6-----
2024-04-22 01:36 am S 1.9 2.9----29.88- 53.8-----
2024-04-22 01:30 am S 1.0 2.9----29.88- 53.8-----
2024-04-22 01:24 amSSE 1.9 2.9----29.88- 53.8-----
2024-04-22 01:18 am SW 1.0 5.1----29.88-------
2024-04-22 01:12 am S 1.9 5.1----29.88- 53.8-----
2024-04-22 01:06 am S 1.9 2.9----29.89- 53.8-----
2024-04-22 01:00 amSSW 1.9 4.1----29.89-0.04 54.0-----
2024-04-22 12:54 am SW 1.9 4.1----29.89- 54.0-----